Regional Weather Roundup
Issued by NWS

Home | Current Version | Previous Version | Graphics & Text | Print | Product List | Glossary On
Versions: 1 2 3 4 5 6 7 8 9 10 11 12 13 14 15 16 17 18 19 20 21 22 23 24 25 26 27 28 29 30 31 32 33 34 35 36 37 38 39 40 41 42 43 44 45 46 47 48 49
000
ASUS45 KBOU 271807
RWRCO

WEATHER ROUNDUP FOR COLORADO
NATIONAL WEATHER SERVICE DENVER/BOULDER CO
1200 PM MDT MON APR 27 2015

NOTE: "FAIR" INDICATES FEW OR NO CLOUDS BELOW 12000 FEET WITH NO
SIGNIFICANT WEATHER AND/OR OBSTRUCTIONS TO VISIBILITY.

COZ001>005-013-030-031-271900-
...NORTHWEST COLORADO...

CITY           SKY/WX    TMP DP  RH WIND       PRES   REMARKS
CRAIG          MOSUNNY   52  36  54 VRB3      30.19S
HAYDEN         SUNNY     52  36  54 N6        30.18F
MEEKER         CLOUDY    46  39  76 W8        30.20S
MOUNT WERNER   NOT AVBL
STEAMBOAT SPGS SUNNY     50  36  59 S5        30.17F
WALDEN         PTSUNNY   43  28  56 W3        30.23R
$$

COZ006>008-011-271900-
...WEST CENTRAL VALLEYS...

CITY           SKY/WX    TMP DP  RH WIND       PRES   REMARKS
GRAND JUNCTION MOSUNNY   58  39  49 E7        30.12S
MONTROSE       MOSUNNY   53  41  63 W9        30.15F
EAGLE          MOSUNNY   54  34  47 CALM      30.16F
RIFLE          SUNNY     56  35  45 MISG      30.13F
DELTA          MOSUNNY   56  42  60 MISG      30.14F
NUCLA          SUNNY     55  39  54 N7        30.14F
$$

COZ017>023-064>068-271900-
...SOUTHWEST COLORADO...

CITY           SKY/WX    TMP DP  RH WIND       PRES   REMARKS
DURANGO        SUNNY     54  32  43 S3        30.09S
CORTEZ         PTSUNNY   59  36  42 VRB3      30.08S
PAGOSA SPRINGS SUNNY     54  26  33 NE8G16    30.11S
TELLURIDE      MOSUNNY   46  27  47 CALM      30.18S
WOLF CREEK PAS NOT AVBL
$$

COZ009-010-012-014-032>034-037-058>063-271900-
...CENTRAL COLORADO...

CITY           SKY/WX    TMP DP  RH WIND       PRES   REMARKS
ASPEN          PTSUNNY   47  33  58 N6        30.16F
BUENA VISTA    CLOUDY    47  31  53 E9        30.21S
COPPER MTN     CLOUDY    37  27  65 E8        30.29S
BERTHOUD PASS  HAZE      23  16  74 SE14      30.33R VSB<1/4 WCI  11
COTTONWOOD PAS CLOUDY    37  32  81 SE6       30.26R
GUNNISON       MOSUNNY   50  28  43 W3        30.17F
KREMMLING      MOSUNNY   54  27  35 NW3       30.19F
LEADVILLE      CLOUDY    35  26  69 SW5       30.23S WCI  31
MONARCH PASS   CLOUDY    27  23  86 MISG      30.33S
SALIDA         CLOUDY    44  37  77 SE12      30.29F
SUNLIGHT       MOSUNNY   39  32  75 CALM      30.30S
WILKERSON PASS FOG      N/A N/A N/A NE8       30.31S VSB 1/2
$$

COZ069>075-271900-
...SAN LUIS VALLEY/SANGRE DE CRISTO MOUNTAINS...

CITY           SKY/WX    TMP DP  RH WIND       PRES   REMARKS
ALAMOSA        PTSUNNY   50  29  44 N12G21    30.14S
LA VETA PASS   SNOW      27  25  93 MISG      30.23R VSB 1/2
SAGUACHE       PTSUNNY   50  32  50 E12G18    30.16S
$$

COZ035-036-038>040-271900-
...NORTHERN COLORADO FRONT RANGE...

CITY           SKY/WX    TMP DP  RH WIND       PRES   REMARKS
DENVER INTL AP CLOUDY    42  39  89 N9        30.27F
DMNS CITY PARK   N/A     42  38  84 N6        30.27S
AURORA         CLOUDY    41  41 100 N8        30.28S
FRONT RANGE AP CLOUDY    45  41  87 N7        30.28S FOG
ERIE MUNI ARPT CLOUDY    43  40  91 N7        30.29S
BOULDER MUN AP CLOUDY    43  41  93 NE6       30.28S
CENTENNIAL     CLOUDY    40  38  93 N8        30.27S
BROOMFIELD     CLOUDY    41  39  93 N7        30.28S
FORT COLLINS   PTSUNNY   45  39  81 CALM      30.30F
LONGMONT       CLOUDY    47  41  79 NE5       30.31S
$$

COZ041-046-047-076>085-087-088-271900-
...PIKES PEAK/PALMER DIVIDE AND SOUTHERN FOOTHILLS...

CITY           SKY/WX    TMP DP  RH WIND       PRES   REMARKS
COLO. SPRINGS  CLOUDY    43  36  76 N12       30.25R
A. F. ACADEMY  CLOUDY    39  37  91 N13       30.25S
ELLICOTT       CLOUDY   N/A N/A N/A NE16      30.24R
FALCON         CLOUDY    39  36  86 N10       30.26S
FORT CARSON    CLOUDY    43  37  81 N14       30.24R
LIMON          CLOUDY    44  37  76 N16       30.25S
MONUMENT HILL  CLOUDY    36  34  93 N10       30.26R
TRINIDAD       LGT RAIN  39  37  92 N16       30.20R FOG
$$

COZ042>045-048>051-090-091-271900-
...NORTHEAST COLORADO...

CITY           SKY/WX    TMP DP  RH WIND       PRES   REMARKS
GREELEY ARPT   CLOUDY    43  37  81 N3        30.30S
AKRON          CLOUDY    48  39  71 NE10      30.26S
BURLINGTON     MOSUNNY   52  35  52 NE22G28   30.22S
WRAY           PTSUNNY   54  33  46 E9        30.25S
STERLING       CLOUDY    50  41  71 N6        30.26S
HOLYOKE        PTSUNNY   55  34  44 N7        30.26F
FORT MORGAN    CLOUDY    45  40  83 N8        30.28S
$$

COZ086-089-092>099-271900-
...SOUTHEAST COLORADO...

CITY           SKY/WX    TMP DP  RH WIND       PRES   REMARKS
PUEBLO         CLOUDY    45  40  82 NE10      30.24R
LA JUNTA       CLOUDY    51  42  71 N18       30.20S
LAMAR          PTSUNNY   53  35  50 NE24      30.16R
SPRINGFIELD      N/A     45  36  70 N28G35    30.12R
$$



USA.gov is the U.S. government's official web portal to all federal, state and local government web resources and services.